This demonstration page uses our WeatherBlox Daily Observations layout. Learn more.

Left ArrowRight Arrow

41.12389, -100.76542

Hourly Observations for August 16, 2019

Temp ( °F °C ) Dew Point ( °F °C ) Humidity (%) Winds ( mph kmh ) Pressure ( in mb ) Visibility ( mi km ) Precip ( " mm )
12:53 am 00:53 Clear 64 17.8 61 16.1 90 90 Calm 29.91 1013 10 16 0.00 0.00
1:53 am 01:53 Clear 61 16.1 59 15 93 93 Calm 29.92 1013 10 16 0.00 0.00
2:53 am 02:53 Mostly Clear 62 16.7 60 15.6 93 93 ENE 5 7 29.91 1013 10 16 0.00 0.00
3:24 am 03:24 Mostly Cloudy with Nearby Thunderstorms 63 17.2 61 16.1 93 93 ESE 6 9 29.88 1012 10 16 0.00 0.00
3:39 am 03:39 Mostly Cloudy 63 17.2 61 16.1 93 93 Calm 29.89 1012 10 16 0.00 0.00
3:53 am 03:53 Mostly Clear 63 17.2 61 16.1 93 93 Calm 29.90 1013 10 16 0.00 0.00
4:12 am 04:12 Mostly Clear with Nearby Thunderstorms 63 17.2 62 16.7 97 97 E 5 7 29.91 1013 10 16 0.00 0.00
4:27 am 04:27 Mostly Clear 63 17.2 62 16.7 97 97 E 5 7 29.91 1013 10 16 0.00 0.00
4:53 am 04:53 Partly Cloudy with Nearby Thunderstorms 65 18.3 62 16.7 90 90 NNW 16 26 30.01 1016 10 16 0.00 0.00
5:02 am 05:02 Mostly Cloudy with Thunderstorms 67 19.4 63 17.2 87 87 N 15 24 29.99 1015 10 16 0.01 0.25
5:30 am 05:30 Cloudy with Nearby Thunderstorms 64 17.8 61 16.1 90 90 ENE 15 24 29.94 1014 8 13 0.10 2.54
5:35 am 05:35 Cloudy with Rain 64 17.8 61 16.1 90 90 E 14 22 29.94 1014 9 14 0.11 2.79
5:53 am 05:53 Partly Cloudy with Light Rain 64 17.8 60 15.6 87 87 NE 8 13 29.97 1015 10 16 0.12 3.05
6:25 am 06:25 Mostly Cloudy with Light Rain 63 17.2 60 15.6 90 90 ESE 14 22 29.89 1012 10 16 0.00 0.00
6:53 am 06:53 Clear 62 16.7 59 15 90 90 SSE 14 22 29.88 1012 10 16 0.00 0.00
7:53 am 07:53 Sunny 61 16.1 57 13.9 87 87 Calm 29.94 1014 10 16 0.00 0.00
8:53 am 08:53 Sunny 66 18.9 60 15.6 81 81 N 6 9 29.95 1014 10 16 0.00 0.00
9:53 am 09:53 Sunny 69 20.6 60 15.6 73 73 SSE 3 6 29.91 1013 10 16 0.00 0.00
10:53 am 10:53 Sunny 72 22.2 59 15 64 64 VRB 5 7 29.93 1013 10 16 0.00 0.00
11:53 am 11:53 Sunny 75 23.9 62 16.7 64 64 NW 7 11 29.93 1014 10 16 0.00 0.00
12:53 pm 12:53 Sunny 78 25.6 62 16.7 58 58 SW 9 15 29.88 1012 10 16 0.00 0.00
1:53 pm 13:53 Sunny 82 27.8 59 15 46 46 SSW 13 20 29.85 1011 10 16 0.00 0.00
2:53 pm 14:53 Sunny 84 28.9 60 15.6 44 44 SSE 7 11 29.84 1011 10 16 0.00 0.00
3:53 pm 15:53 Sunny 82 27.8 59 15 46 46 S 8 13 29.83 1010 10 16 0.00 0.00
4:53 pm 16:53 Sunny 83 28.3 61 16.1 48 48 S 8 13 29.81 1010 10 16 0.00 0.00
5:53 pm 17:53 Sunny 81 27.2 62 16.7 53 53 S 5 7 29.80 1009 10 16 0.00 0.00
6:53 pm 18:53 Sunny 79 26.1 65 18.3 62 62 S 3 6 29.80 1009 10 16 0.00 0.00
7:53 pm 19:53 Sunny 75 23.9 67 19.4 76 76 SE 9 15 29.80 1009 10 16 0.00 0.00
8:53 pm 20:53 Mostly Clear 73 22.8 66 18.9 79 79 SSE 8 13 29.81 1010 10 16 0.00 0.00
9:53 pm 21:53 Clear 71 21.7 65 18.3 81 81 ESE 6 9 29.85 1011 10 16 0.00 0.00
10:53 pm 22:53 Cloudy with Light Rain 71 21.7 67 19.4 87 87 SSW 10 17 29.89 1012 10 16 0.03 0.76
11:53 pm 23:53 Mostly Clear 71 21.7 62 16.7 73 73 S 18 30 29.76 1008 10 16 0.01 0.25

Powered by AerisWeather